[[{"header":{"parameterUnit":"m.s-1","parameterCategory":1,"la1":30.2991,"la2":30.254,"lo1":-89.0895,"lo2":-89.0444,"dy":0.0017,"dx":0.0017,"nx":28,"ny":28,"refTime":"2024-08-01T03:00:00:Z","depth":0,"parameterNumber":2,"parameterNumberName":"U-component_of_WINDS"},"data":[0,0,0,0,0,0,0,0,0,0,0,0,0,0,0,0,0,0,0,0,0,0,0,0,0,0,0,0,0,0,0,0,0,0,0,0,0,0,0,0,0,0,0,0,0,0,0,0,0,0,0,0,0,0,0,0,0,0,2.7078,2.7078,0,2.7111,2.7112,2.7112,2.7049,2.7047,2.7045,2.7043,2.7079,2.7081,2.7084,0,0,0,0,0,0,0,0,0,0,0,0,0,2.6959,2.6962,2.7078,2.7078,2.7079,2.7111,2.7112,2.7112,2.7049,2.7047,2.7044,2.7042,2.7078,2.7081,2.7085,0,0,0,0,0,0,0,0,0,0,0,0,0,2.7004,2.6963,2.7078,2.7051,2.7049,2.7111,2.7112,2.7112,2.705,2.7047,2.7044,2.7041,2.7077,2.7081,2.7085,2.7175,0,0,2.7098,2.71,0,0,0,0,0,0,0,0,2.7001,2.7008,2.7055,2.7053,2.7051,2.7073,2.7083,2.7133,2.7051,2.705,2.7043,2.7039,2.7079,2.7083,2.7096,2.7177,2.7178,2.7099,2.7101,2.7103,2.7105,0,0,0,0,0,0,0,2.6998,2.7006,2.7091,2.7055,2.7053,2.7037,2.704,2.7092,2.7082,2.7049,2.7045,2.705,2.7078,2.7092,2.7097,2.7179,2.7099,2.7103,2.7105,2.7107,2.7331,2.7334,0,0,0,0,0,0,2.6998,2.7004,2.709,2.7092,2.7018,2.7042,2.7045,2.7069,2.7081,2.708,2.7052,2.7047,2.7086,2.7092,2.7098,2.7201,2.7103,2.7107,2.711,2.7328,2.7332,2.7335,0,0,0,0,0,0,2.6996,2.7007,2.7089,2.7047,2.7056,2.7048,2.7075,2.7071,2.7086,2.7083,2.7081,2.7069,2.7084,2.7092,2.7155,2.7201,2.7109,2.7113,2.7324,2.7329,2.7333,2.741,0,0,0,0,0,0,2.6993,2.7006,2.704,2.7048,2.7059,2.7146,2.7077,2.7074,2.7093,2.7086,2.7098,2.7098,2.7082,2.7149,2.716,2.7206,2.7117,2.7319,2.7326,2.7332,2.7403,2.7417,2.7429,0,0,0,0,0,2.6989,2.7062,2.7042,2.7053,2.7101,2.7149,2.7155,2.7135,2.7097,2.7131,2.7129,2.7097,2.7195,2.7156,2.7168,2.7216,2.7316,2.7324,2.7331,2.7397,2.7414,2.7428,0,0,0,0,0,0,2.7061,2.7062,2.7041,2.7118,2.7134,2.7138,2.718,2.7154,2.7181,2.7173,2.7149,2.7152,2.722,2.7225,2.7181,2.7302,2.7249,2.7259,2.7296,2.7312,2.7324,2.732,2.712,0,0,0,0,0,2.7086,2.7124,2.7123,2.7192,2.72,2.7189,2.7209,2.7193,2.7208,2.7214,2.7217,2.7233,2.7267,2.729,2.7322,2.7404,2.7404,2.7443,2.7455,2.7466,2.7474,2.7515,2.7531,2.736,2.736,2.736,0,0,2.7137,2.7143,2.7169,2.7206,2.7216,2.7255,2.7195,2.724,2.7269,2.7221,2.728,2.7283,2.7299,2.7372,2.7404,2.7378,2.7522,2.7475,2.7484,2.7486,2.7524,2.7541,2.7555,2.7365,2.7364,2.7363,0,0,2.7251,2.726,2.7316,2.7327,2.7342,2.7334,2.7348,2.7356,2.7355,2.7414,2.7378,2.7412,2.7472,2.7484,2.7498,2.7614,2.7585,2.7626,2.7691,2.7731,2.7745,2.7756,2.7795,2.7809,2.7634,2.7635,2.7635,0,2.7313,2.7371,2.7349,2.7395,2.7412,2.737,2.7425,2.7437,2.7463,2.7475,2.7445,2.7517,2.7526,2.7599,2.7627,2.7641,2.7654,2.7623,2.7745,2.7756,2.7767,2.7803,2.7818,2.7639,2.7639,2.7638,2.7638,0,2.7445,2.7486,2.753,2.7553,2.7575,2.7626,2.7611,2.7636,2.7618,2.7612,2.7671,2.768,2.7711,2.7727,2.7711,2.7798,2.778,2.7749,2.7695,2.7788,2.7821,2.7836,2.7646,2.7644,2.7643,2.7642,0,0,2.7605,2.7614,2.763,2.7639,2.7652,2.7682,2.7731,2.776,2.7781,2.78,2.7839,2.789,2.7859,2.7875,2.7859,2.7895,2.7982,2.7858,2.7858,2.7878,2.8075,2.8097,2.8114,2.7964,2.7967,2.7969,2.8073,0,2.7715,2.7797,2.7778,2.786,2.7895,2.7855,2.7897,2.7909,2.7906,2.7935,2.7932,2.7966,2.7925,2.7934,2.7968,2.7965,2.8021,2.7957,2.7998,2.8,2.7992,2.8132,2.8156,2.8253,2.8086,2.8088,2.809,0,2.7854,2.7876,2.7961,2.7965,2.7979,2.8017,2.8041,2.807,2.8083,2.8078,2.8094,2.8071,2.8118,2.8066,2.813,2.8086,2.8102,2.8103,2.8106,2.8107,2.8049,2.8133,2.8285,2.8298,2.8111,2.8109,2.8108,0,2.7958,2.8009,2.8065,2.8074,2.8082,2.8109,2.8113,2.8123,2.8141,2.8162,2.8173,2.82,2.8214,2.8236,2.822,2.8184,2.8285,2.8232,2.828,2.828,2.8301,2.8299,2.8454,2.8317,2.8316,2.8316,2.8316,0,2.8081,2.8134,2.8111,2.8145,2.8202,2.818,2.8237,2.8237,2.8245,2.8278,2.8247,2.8278,2.8257,2.8287,2.8275,2.8328,2.8335,2.8331,2.8327,2.8332,2.8332,2.834,2.8332,2.832,2.8319,2.8318,2.8318,0,2.8206,2.8193,2.8251,2.8253,2.8254,2.8296,2.8297,2.8328,2.8322,2.8364,2.8373,2.8363,2.8396,2.8383,2.8419,2.8411,2.8477,2.8465,2.8472,2.8468,2.8515,2.851,2.8678,2.8697,2.855,2.8552,2.8553,0,2.8284,2.8323,2.8328,2.8347,2.8353,2.8385,2.8402,2.8382,2.8401,2.8417,2.8446,2.8476,2.8499,2.8554,2.8549,2.8576,2.8563,2.862,2.8567,2.857,2.856,2.8556,2.8559,2.863,2.8631,2.8633,2.8634,0,2.8422,2.8413,2.8439,2.8463,2.8484,2.8501,2.8516,2.8534,2.8514,2.8537,2.857,2.8587,2.8622,2.8652,2.8675,2.8679,2.8653,2.8651,2.8663,2.8667,2.8668,2.8665,2.8498,2.8647,2.8645,2.8644,2.8644,2.8643,2.8524,2.8555,2.8563,2.8592,2.8601,2.8615,2.8643,2.8639,2.8666,2.8692,2.8679,2.8716,2.8726,2.8754,2.8761,2.879,2.8767,2.8786,2.879,2.8794,2.8798,2.8666,2.8795,2.8794,2.8794,2.8794,2.8793,0,2.8658,2.866,2.8687,2.8708,2.873,2.8703,2.8718,2.8738,2.8771,2.8782,2.8804,2.8841,2.8869,2.8866,2.8892,2.8915,2.8903,2.8922,2.8919,2.8919,2.8819,2.8804,2.8931,2.8931,2.8931,2.8931,2.8931,2.8931,2.873,2.878,2.8772,2.8827,2.8829,2.8864,2.8874,2.8886,2.8894,2.8936,2.8959,2.8957,2.8962,2.8987,2.9011,2.9009,2.9019,2.9042,2.9036,2.8941,2.8927,2.8914,2.89,2.9045,2.9045,2.9133,2.9134,2.9135]},{"header":{"parameterUnit":"m.s-1","parameterCategory":1,"la1":30.2991,"la2":30.254,"lo1":-89.0895,"lo2":-89.0444,"dy":0.0017,"dx":0.0017,"nx":28,"ny":28,"refTime":"2024-08-01T03:00:00:Z","depth":0,"parameterNumber":3,"parameterNumberName":"V-component_of_WINDS"},"data":[0,0,0,0,0,0,0,0,0,0,0,0,0,0,0,0,0,0,0,0,0,0,0,0,0,0,0,0,0,0,0,0,0,0,0,0,0,0,0,0,0,0,0,0,0,0,0,0,0,0,0,0,0,0,0,0,0,0,0.9914,0.9916,0,1.004,1.0041,1.0042,1.0079,1.0078,1.0078,1.0077,1.0203,1.0207,1.0211,0,0,0,0,0,0,0,0,0,0,0,0,0,0.9704,0.9708,0.9914,0.9916,0.9917,1.0039,1.0041,1.0043,1.0079,1.0078,1.0077,1.0077,1.0202,1.0207,1.0211,0,0,0,0,0,0,0,0,0,0,0,0,0,0.9809,0.9709,0.9914,0.995,0.9955,1.0039,1.0041,1.0043,1.0079,1.0078,1.0077,1.0076,1.02,1.0206,1.0212,1.0268,0,0,1.023,1.0233,0,0,0,0,0,0,0,0,0.9803,0.9817,0.9943,0.9948,0.9953,1.0043,1.0013,1.0119,1.0079,1.0032,1.0077,1.0076,1.015,1.016,1.0186,1.0274,1.028,1.0231,1.0234,1.0237,1.0239,0,0,0,0,0,0,0,0.9796,0.9811,0.9964,0.9945,0.9951,0.9959,0.9973,1.0033,1.0095,1.0036,1.0039,1.0053,1.0153,1.018,1.0189,1.0282,1.0231,1.0236,1.024,1.0242,1.0421,1.0423,0,0,0,0,0,0,0.9782,0.9805,0.996,0.9968,0.9874,0.9964,0.9979,1.0015,1.0095,1.0106,1.0054,1.0055,1.017,1.0182,1.0194,1.0265,1.0237,1.0242,1.0246,1.042,1.0422,1.0423,0,0,0,0,0,0,0.9778,0.9796,0.9955,0.9887,0.9908,0.9969,1.0008,1.0018,1.0045,1.0108,1.0119,1.0071,1.017,1.0185,1.025,1.027,1.0245,1.0251,1.0419,1.0421,1.0422,1.0407,0,0,0,0,0,0,0.9772,0.9794,0.9817,0.9887,0.9912,1.0009,1.0009,1.0021,1.0056,1.0058,1.0127,1.0137,1.0171,1.024,1.0255,1.0277,1.0255,1.0417,1.042,1.0422,1.0406,1.0408,1.041,0,0,0,0,0,0.9764,0.9808,0.9818,0.9836,0.9941,1.001,1.0024,1.0062,1.0057,1.008,1.012,1.0135,1.0265,1.0247,1.0264,1.0288,1.0416,1.0419,1.0422,1.0405,1.0408,1.041,0,0,0,0,0,0,0.9738,0.9818,0.983,0.9898,0.9947,1.0016,1.0047,1.0064,1.0115,1.0114,1.0158,1.0174,1.0234,1.0268,1.0246,1.0346,1.0341,1.0347,1.0323,1.0326,1.0327,1.0318,1.026,0,0,0,0,0,0.974,0.979,0.9856,0.991,0.9934,0.9986,1.0017,1.0042,1.0095,1.0116,1.0161,1.021,1.0262,1.0296,1.0347,1.0411,1.0426,1.0436,1.0438,1.0439,1.0444,1.0479,1.0484,1.0432,1.0432,1.0432,0,0,0.9744,0.9794,0.9823,0.9906,0.9947,0.9997,1.0003,1.0056,1.0093,1.0123,1.0187,1.0221,1.028,1.0344,1.0374,1.0373,1.0461,1.0442,1.0443,1.0447,1.0482,1.0487,1.0492,1.0434,1.0433,1.0433,0,0,0.9779,0.9822,0.987,0.9911,0.9974,1.0008,1.0019,1.0086,1.011,1.0175,1.0198,1.0242,1.0331,1.0372,1.0404,1.0451,1.0467,1.0467,1.0477,1.0511,1.0515,1.0519,1.0535,1.0541,1.0471,1.0471,1.0471,0,0.9777,0.9854,0.9893,0.9945,0.998,1.001,1.0059,1.0096,1.0172,1.0195,1.0193,1.0304,1.0346,1.0419,1.043,1.0456,1.0469,1.0459,1.0511,1.0516,1.052,1.0536,1.0542,1.0471,1.0471,1.0471,1.0471,0,0.9848,0.9901,0.9932,1.0005,1.0044,1.0094,1.014,1.0174,1.0195,1.0229,1.0293,1.0343,1.0405,1.0424,1.0445,1.05,1.0498,1.0503,1.0498,1.0524,1.054,1.0546,1.047,1.0471,1.0471,1.0471,0,0,0.987,0.9963,0.9974,1.0007,1.0077,1.0118,1.0169,1.0229,1.0258,1.0308,1.0351,1.0425,1.043,1.0466,1.0491,1.0521,1.0555,1.0523,1.0525,1.0527,1.0618,1.0614,1.0621,1.0565,1.0567,1.0568,1.0613,0,0.9913,1.0006,1.0042,1.0117,1.0166,1.0194,1.0238,1.0285,1.0318,1.0363,1.0399,1.045,1.0453,1.0475,1.0506,1.0544,1.0574,1.0542,1.0605,1.0607,1.059,1.0629,1.0625,1.0666,1.062,1.0621,1.0621,0,0.9976,1.0028,1.0108,1.0171,1.0193,1.0232,1.029,1.0333,1.0386,1.0408,1.0448,1.0471,1.0524,1.0516,1.0588,1.0566,1.0593,1.0616,1.0619,1.0626,1.0616,1.0638,1.068,1.0686,1.0632,1.0631,1.063,0,0.9984,1.0073,1.0132,1.016,1.0235,1.0262,1.0294,1.0347,1.038,1.043,1.0453,1.0508,1.0538,1.058,1.0617,1.0608,1.0686,1.0681,1.0705,1.0704,1.0721,1.0719,1.0768,1.0738,1.0738,1.0738,1.0738,0,1.0029,1.0076,1.0137,1.0173,1.0227,1.0268,1.032,1.0354,1.04,1.0443,1.047,1.0509,1.0556,1.0601,1.063,1.0685,1.0699,1.0717,1.0724,1.0715,1.0712,1.0734,1.0732,1.074,1.0739,1.0739,1.0739,0,1.0047,1.009,1.0156,1.0221,1.0239,1.0276,1.0331,1.0367,1.04,1.0454,1.0469,1.0521,1.0575,1.0616,1.0686,1.0706,1.0765,1.0772,1.0747,1.0751,1.0772,1.0769,1.0836,1.0847,1.081,1.081,1.081,0,1.0073,1.011,1.018,1.021,1.0243,1.0292,1.0327,1.0367,1.0402,1.0465,1.0493,1.0549,1.0596,1.0681,1.0725,1.0778,1.0787,1.0807,1.0795,1.0784,1.0787,1.0784,1.0788,1.0808,1.0808,1.0809,1.0809,0,1.0114,1.0133,1.0182,1.0238,1.0279,1.0325,1.0371,1.0395,1.0444,1.0481,1.0537,1.0573,1.0645,1.07,1.0757,1.079,1.0807,1.0812,1.082,1.0811,1.0795,1.0804,1.0751,1.081,1.081,1.081,1.081,1.081,1.0137,1.0171,1.0225,1.0279,1.0318,1.036,1.0397,1.0435,1.0482,1.0544,1.0565,1.0622,1.0673,1.0753,1.0785,1.083,1.083,1.0842,1.0846,1.0848,1.0847,1.0787,1.0841,1.0841,1.0841,1.0841,1.0841,0,1.0179,1.0215,1.0264,1.0328,1.037,1.0383,1.0434,1.0468,1.0519,1.0565,1.0611,1.0674,1.0728,1.0775,1.083,1.0856,1.0866,1.0869,1.0868,1.0875,1.0844,1.0831,1.0861,1.0861,1.0861,1.0861,1.0861,1.0861,1.0206,1.0264,1.0289,1.0367,1.0402,1.046,1.0488,1.0527,1.0564,1.0634,1.0678,1.0709,1.0755,1.0814,1.0863,1.0875,1.0894,1.0896,1.091,1.088,1.0877,1.0875,1.0863,1.0899,1.0899,1.0937,1.0938,1.0938]}]]